Location: Carnières
(50.1682°N, 3.3474°E)
Time: 06:19:02
(UTC+00:00)

MOZ.5/SAFIR/RUBIN 5/SL-8 - Pass Details

Date: 16 August 2024
Orbit: 671 x 698 km, 98.3° (Epoch: 08 September)

Event Time Altitude Azimuth Distance (km) Brightness Sun altitude
Exits shadow 23:54:45 16° 90° (E) 1,773 5.9 -26.5°
Maximum altitude 23:56:42 21° 59° (ENE) 1,568 5.9 -26.5°
Drops below altitude 10° 00:00:10 10° 12° (NNE) 2,172 7.3 -26.5°
Sets 00:02:54 0° 356° (N) 3,096 8.4 -26.5°
